ZHANGZHENG-1 (CSES) (43194 NORAD) Tracking and Keplerian Element Data

This shows tracking and keplerian element data for the satellite.

Feedback or suggestion? Click here.




ElementValue
Catalog43194
NameZHANGZHENG-1 (CSES)
Epoch Orbit4352
Epoch Day319.57238216
Epoch Year2018
RAAN84.679
Inclination97.3697
Eccentricity0.0016152
Argument of Perigee348.7746
Mean Anonmoly11.3122
Mean Motion15.20954763
Decay Rate1.046E-05
L11 43194U 18015C 18319.57238216 .00001046 00000-0 50220-4 0 9996
L22 43194 97.3697 84.6790 0016152 348.7746 11.3122 15.20954763 43528

Live tracking and technical data element details for ZHANGZHENG-1 (CSES) (NORAD 43194). ZHANGZHENG-1 (CSES) can be tracked NOW for your location showing map with azimuth and elevation plus other details from your city location.

Track the satellite on the map from your city or location and see movement details for azimuth, elevation, latitude, longitude, range, height, and movement on the map or in text.







IsCatalogInMostPopularTable: catalog: 43194, numindb: 112
Update: records affected: 1



GetName: 43194 ZHANGZHENG-1 (CSES)

Hit Count: updated at: Fri, 16 Nov 2018 12:09:36 GMT